Wind_Speed
39 40 40 41 40 40 41 41 41 41 41 40 40 40 40 39 38 38 37 37 37 36 35 35 34 34 34 33 33 33 32 32 31 30 30 29 28 28 27 26 26 26 25
40 41 41 41 41 42 42 43 44 44 43 42 42 42 42 42 41 40 40 39 39 39 38 37 37 36 36 36 35 35 35 35 34 33 32 31 31 29 29 29 28 27 27
41 42 42 43 43 44 44 45 45 46 46 45 45 44 43 44 44 43 43 42 42 41 40 39 39 38 38 37 37 37 36 36 35 34 34 33 32 32 31 31 31 30 29
43 44 45 45 45 46 46 46 46 46 46 46 46 46 45 45 45 45 45 45 44 44 43 43 42 41 40 39 39 38 38 37 36 35 35 34 34 33 33 32 32 31 31
46 46 46 47 47 47 48 49 49 48 48 48 48 48 47 47 47 47 47 47 47 47 46 46 45 44 43 42 42 41 40 40 39 38 37 36 36 35 35 34 33 33 32
48 49 49 49 49 49 50 51 51 51 51 51 51 51 50 49 50 50 50 49 49 49 49 48 47 47 47 46 45 44 43 43 42 41 40 39 38 38 37 37 36 35 34
50 51 52 52 53 52 52 53 53 53 53 54 54 53 53 52 52 52 52 52 51 51 51 50 50 48 48 48 48 47 45 45 45 44 43 42 41 40 40 39 39 38 37
52 53 53 53 53 53 54 54 54 55 55 56 56 56 55 54 54 53 53 53 53 53 53 54 54 52 51 51 50 50 49 48 47 46 45 44 43 42 42 41 41 40 40
53 53 53 54 53 54 54 54 55 55 55 55 56 56 56 55 56 54 55 54 54 54 54 55 57 56 55 54 54 53 52 52 51 49 48 47 46 45 45 43 43 42 41
53 54 55 55 55 55 55 54 54 55 55 55 55 56 56 56 56 55 55 55 56 56 55 56 57 58 57 57 56 56 55 54 53 52 52 51 50 49 48 47 46 44 43
54 55 55 55 55 55 55 55 54 55 55 55 55 56 56 56 57 57 56 56 55 56 56 56 57 59 58 58 58 58 57 56 55 55 54 54 53 52 51 50 49 48 47
55 55 55 56 56 56 54 54 54 55 56 56 56 57 57 56 57 57 57 56 55 56 56 58 58 59 60 59 59 60 60 59 58 57 57 57 56 55 53 53 52 51 49
55 55 55 55 55 55 55 55 56 56 56 56 56 57 57 57 57 58 58 58 58 58 58 58 58 59 60 61 61 61 61 61 60 59 59 59 58 58 57 56 54 53 52
54 54 54 54 54 55 55 55 55 55 55 55 56 56 57 57 58 58 59 59 58 58 58 59 59 59 59 61 62 62 62 63 62 62 61 61 60 60 59 58 57 56 54
52 52 53 53 54 54 54 54 55 54 54 54 55 56 56 57 58 58 59 59 59 58 57 57 58 60 61 61 61 62 63 64 64 64 63 63 63 62 62 61 60 58 57
51 50 51 52 52 53 53 53 53 54 54 54 54 55 56 56 58 58 58 59 59 59 58 57 58 59 60 61 62 62 63 63 64 65 65 65 64 64 63 63 62 61 60
50 50 50 50 51 51 52 52 52 53 53 53 53 53 54 55 56 57 57 57 58 58 58 57 58 58 58 60 60 61 62 63 63 64 65 66 66 66 66 65 65 64 63
49 49 50 50 50 51 51 51 51 51 51 51 51 51 52 53 53 54 55 55 56 56 56 56 56 56 56 57 59 59 60 61 62 63 64 65 66 67 67 68 67 67 67
48 48 48 48 48 48 49 49 49 49 49 48 48 49 50 51 52 52 53 54 54 55 55 55 54 55 55 55 56 57 58 59 60 61 63 64 65 66 67 68 68 69 69
46 45 46 45 46 46 46 47 47 47 47 46 46 47 47 49 50 51 52 52 53 54 54 54 54 53 54 55 55 56 56 57 58 59 61 62 64 65 66 67 69 69 70
44 44 44 44 44 44 44 45 45 46 46 46 45 45 46 47 48 49 50 51 52 52 53 53 53 54 54 55 55 55 55 56 56 58 59 60 62 63 65 66 67 68 69
42 42 42 42 42 42 42 43 44 45 45 45 45 44 44 45 46 47 48 50 50 51 52 52 52 53 53 54 55 55 55 55 55 56 58 59 59 61 63 65 66 67 68
41 41 41 41 41 41 42 42 43 43 44 44 44 44 44 44 45 46 48 49 49 50 51 52 52 51 52 53 54 54 54 54 54 54 56 56 58 60 61 62 64 65 66
40 40 40 40 40 40 41 41 41 42 42 42 43 44 44 44 45 45 47 48 49 49 51 51 51 51 52 52 52 53 54 54 54 54 55 55 55 57 58 59 61 62 63
37 38 38 38 39 39 39 40 41 40 40 40 41 42 43 44 44 44 45 46 47 48 50 50 49 49 49 49 50 51 52 53 53 53 54 54 54 55 56 57 58 60 61
36 37 37 37 37 37 37 38 38 38 38 38 39 40 41 42 43 43 44 44 44 46 47 48 47 47 47 48 48 49 49 50 51 50 51 52 53 54 54 54 55 57 58
Wind_Direction
266 266 265 263 262 262 260 260 260 260 260 261 261 259 257 257 256 255 254 253 253 253 252 252 251 251 251 252 253 252 251 252 252 252 251 251 252 254 254 255 255 255 255
267 266 265 265 263 262 261 259 259 259 259 260 260 260 258 257 256 254 254 254 253 253 253 252 252 251 251 252 253 253 252 251 252 252 252 252 252 253 253 254 255 256 256
268 267 266 265 265 263 262 261 259 259 258 259 260 260 260 258 257 255 254 253 253 253 252 252 251 251 251 251 252 252 252 252 252 252 252 252 252 254 254 254 254 255 256
268 268 267 266 266 264 262 261 261 259 259 259 259 259 259 259 258 255 253 253 252 252 252 251 250 250 250 251 251 251 251 251 251 252 252 252 252 254 254 255 255 255 256
270 270 269 267 266 264 263 262 262 261 260 260 259 259 258 258 258 256 254 253 252 252 251 251 251 250 249 250 250 250 249 250 250 251 251 252 252 253 254 254 256 257 257
271 271 269 268 267 266 265 264 263 263 262 261 260 260 259 258 257 255 255 254 252 252 251 251 250 249 249 249 249 249 249 249 250 251 251 252 252 253 254 255 256 257 258
272 272 270 269 268 268 267 266 264 264 263 261 260 260 259 259 257 255 254 253 253 252 251 250 249 249 248 248 248 249 249 249 249 250 251 251 252 254 255 256 256 256 257
273 272 270 269 268 268 268 267 266 265 263 262 261 260 259 258 257 255 254 254 254 253 252 251 250 250 249 249 249 249 249 249 249 249 250 251 252 253 255 256 255 256 256
273 272 270 268 268 268 268 267 267 265 264 263 261 261 260 258 255 254 254 254 254 254 254 252 252 251 251 250 249 249 251 251 251 250 250 251 251 253 254 254 254 255 255
273 272 271 269 269 269 269 268 268 265 264 263 261 260 259 259 256 254 253 253 254 254 254 253 252 252 252 251 250 250 250 251 251 251 251 251 252 253 253 254 254 253 253
274 273 272 271 270 270 270 268 268 266 265 264 262 260 259 258 257 256 253 252 253 254 254 253 253 252 252 251 251 251 251 251 251 251 251 251 252 252 253 254 254 254 254
274 273 272 271 270 270 270 269 268 266 265 266 264 260 258 258 257 256 254 252 252 253 254 254 253 253 253 252 252 251 251 251 251 251 251 252 252 251 251 252 253 254 254
275 274 272 271 270 269 269 269 268 267 266 266 264 261 259 258 257 256 255 254 253 253 254 254 254 253 253 253 253 252 252 251 251 251 251 251 251 251 251 251 252 253 253
276 274 273 272 271 270 269 269 268 267 267 266 264 262 260 259 258 257 257 256 254 254 254 254 254 254 254 254 254 253 252 252 251 251 251 250 250 250 250 251 251 251 251
277 275 273 272 272 270 271 270 269 268 268 267 265 264 262 260 259 258 258 257 256 255 254 255 255 255 255 255 255 253 252 252 251 250 250 250 250 249 249 250 250 250 251
277 277 275 274 272 271 271 270 269 268 269 268 267 266 264 263 261 259 258 258 257 257 256 255 255 255 255 255 254 254 252 251 250 249 249 250 250 249 249 250 250 250 250
278 277 276 275 273 272 272 271 270 270 269 268 267 266 264 263 261 259 258 258 257 257 257 256 255 255 255 255 254 254 253 252 251 251 250 249 249 248 248 248 248 249 249
279 278 277 276 275 274 273 272 271 270 269 268 266 265 264 262 260 258 257 257 257 256 257 256 256 255 255 254 254 253 253 252 252 251 251 250 248 248 248 248 248 248 248
280 279 278 277 276 275 274 273 271 270 269 268 266 265 264 262 260 259 258 257 257 256 256 256 255 255 255 255 254 253 253 253 252 252 251 251 250 249 248 248 248 248 248
281 280 278 277 276 275 274 273 271 270 270 268 267 265 264 262 261 260 258 257 256 256 256 256 255 255 255 255 255 255 255 254 253 252 252 251 251 250 249 249 249 249 249
282 281 279 278 277 276 275 274 272 270 270 269 268 266 264 262 261 260 259 257 256 255 255 255 255 255 255 256 256 256 256 255 254 254 253 252 251 251 250 250 250 250 250
283 282 280 279 278 277 276 274 273 271 270 269 268 267 266 263 262 261 259 258 256 255 255 255 256 256 256 256 257 257 257 256 255 255 255 253 252 251 251 251 250 250 250
283 282 281 280 278 278 277 275 275 273 271 269 268 267 267 265 263 262 260 258 257 256 255 256 256 256 257 257 257 257 257 256 256 256 255 254 254 253 252 251 250 250 250
284 283 282 281 280 278 277 275 275 275 272 271 269 268 267 266 264 264 263 261 259 256 255 256 257 257 257 257 257 257 257 257 256 256 256 256 256 255 253 252 251 250 250
286 285 283 282 281 280 278 276 275 275 273 272 271 270 268 267 265 264 264 263 261 258 258 257 256 255 255 256 257 257 257 257 257 257 256 256 255 254 253 252 251 250 250
286 286 285 284 282 281 280 279 277 276 274 273 272 272 271 268 266 264 264 264 262 260 258 257 256 255 255 255 256 256 256 257 257 256 255 256 255 254 253 251 251 251 250
Height
5757 5757 5757 5758 5759 5760 5761 5763 5764 5766 5767 5769 5771 5772 5774 5776 5778 5781 5783 5785 5786 5788 5790 5792 5794 5796 5797 5799 5801 5802 5804 5806 5808 5809 5811 5812 5814 5815 5816 5818 5819 5820 5821
5746 5747 5747 5748 5749 5750 5751 5752 5754 5755 5757 5759 5760 5762 5764 5766 5769 5771 5773 5775 5777 5779 5781 5783 5786 5787 5789 5791 5793 5794 5796 5798 5800 5802 5804 5805 5807 5808 5810 5811 5813 5814 5815
5736 5737 5737 5738 5738 5739 5740 5741 5742 5744 5746 5748 5749 5751 5753 5755 5758 5760 5763 5765 5767 5770 5772 5774 5776 5778 5780 5782 5784 5786 5787 5789 5792 5794 5796 5798 5800 5801 5803 5804 5806 5807 5808
5725 5725 5726 5726 5727 5727 5728 5729 5730 5732 5734 5736 5737 5739 5742 5744 5746 5749 5751 5754 5757 5759 5761 5764 5766 5768 5771 5773 5775 5777 5779 5781 5783 5785 5787 5790 5792 5794 5795 5797 5798 5800 5801
5713 5713 5714 5714 5714 5715 5716 5717 5718 5720 5721 5723 5725 5727 5729 5731 5734 5736 5739 5742 5745 5747 5750 5753 5755 5758 5760 5763 5765 5767 5769 5771 5774 5776 5779 5781 5783 5785 5787 5789 5791 5792 5793
5700 5701 5701 5701 5702 5702 5703 5703 5705 5706 5708 5709 5711 5713 5716 5718 5720 5723 5726 5728 5731 5734 5737 5740 5743 5746 5749 5752 5754 5756 5759 5761 5764 5767 5769 5772 5774 5776 5779 5781 5782 5784 5785
5687 5687 5687 5687 5688 5688 5689 5690 5691 5692 5693 5694 5696 5699 5701 5703 5705 5708 5711 5714 5717 5720 5724 5727 5730 5733 5736 5740 5742 5745 5748 5751 5753 5756 5759 5762 5764 5767 5769 5771 5773 5775 5777
5673 5673 5673 5673 5673 5674 5674 5674 5675 5676 5678 5679 5680 5683 5686 5689 5690 5693 5696 5699 5703 5706 5709 5713 5716 5720 5723 5727 5730 5733 5736 5739 5742 5745 5748 5751 5754 5756 5759 5761 5764 5766 5768
5659 5659 5658 5658 5658 5658 5659 5659 5660 5661 5662 5663 5664 5666 5669 5672 5676 5680 5681 5684 5687 5691 5694 5698 5701 5705 5708 5712 5716 5720 5723 5726 5729 5732 5736 5739 5742 5745 5748 5750 5753 5756 5758
5645 5644 5643 5643 5643 5643 5643 5644 5644 5645 5646 5648 5649 5650 5652 5655 5659 5664 5667 5669 5672 5675 5678 5682 5686 5689 5693 5697 5701 5705 5709 5712 5716 5719 5723 5726 5730 5733 5736 5739 5742 5745 5747
5630 5629 5628 5627 5627 5627 5628 5628 5628 5629 5630 5632 5633 5635 5637 5639 5642 5646 5651 5654 5657 5660 5663 5666 5670 5674 5677 5681 5685 5690 5694 5698 5702 5705 5709 5713 5716 5720 5723 5726 5730 5733 5736
5615 5614 5613 5612 5612 5612 5612 5613 5613 5613 5614 5615 5617 5618 5621 5624 5626 5629 5634 5638 5641 5644 5647 5650 5654 5657 5661 5665 5669 5673 5677 5682 5686 5690 5694 5698 5702 5706 5710 5713 5717 5720 5723
5600 5599 5598 5597 5596 5596 5596 5597 5597 5597 5598 5599 5600 5602 5604 5607 5610 5613 5616 5621 5625 5629 5631 5634 5637 5641 5644 5648 5652 5656 5661 5665 5669 5674 5678 5682 5686 5690 5695 5699 5703 5706 5710
5584 5583 5582 5581 5581 5581 5581 5581 5581 5582 5582 5583 5584 5585 5588 5590 5593 5595 5599 5602 5607 5612 5615 5619 5621 5623 5626 5630 5634 5638 5643 5647 5652 5657 5661 5666 5670 5675 5679 5684 5688 5692 5695
5569 5568 5567 5566 5566 5565 5565 5565 5565 5566 5566 5567 5568 5569 5571 5574 5576 5578 5581 5584 5588 5593 5598 5602 5604 5606 5608 5612 5616 5620 5624 5629 5634 5638 5643 5648 5653 5658 5663 5667 5672 5676 5680
5555 5553 5552 5551 5551 5550 5550 5550 5550 5550 5550 5551 5552 5553 5555 5557 5559 5561 5563 5566 5569 5573 5578 5584 5586 5588 5591 5594 5598 5601 5606 5610 5615 5620 5624 5629 5635 5640 5645 5650 5655 5660 5664
5541 5539 5538 5537 5536 5535 5535 5534 5535 5534 5535 5535 5536 5537 5538 5540 5542 5544 5546 5549 5552 5554 5559 5565 5568 5571 5573 5576 5580 5583 5587 5591 5596 5600 5605 5610 5615 5621 5626 5632 5637 5642 5647
5527 5525 5524 5522 5521 5521 5520 5519 5519 5519 5519 5519 5520 5521 5522 5523 5525 5527 5530 5533 5535 5538 5541 5546 5550 5553 5556 5559 5562 5565 5569 5573 5578 5582 5586 5591 5596 5602 5607 5613 5618 5623 5629
5513 5511 5509 5508 5507 5506 5505 5505 5504 5504 5504 5504 5505 5506 5507 5508 5510 5512 5514 5516 5519 5522 5524 5528 5533 5536 5539 5542 5545 5548 5552 5556 5560 5564 5568 5572 5577 5582 5588 5593 5598 5604 5610
5499 5497 5496 5494 5493 5492 5491 5490 5490 5490 5490 5490 5491 5491 5492 5493 5495 5496 5498 5501 5503 5506 5508 5512 5516 5520 5523 5526 5528 5532 5535 5539 5542 5546 5550 5554 5559 5563 5569 5574 5581 5586 5590
5486 5484 5482 5481 5479 5478 5477 5477 5476 5476 5476 5476 5477 5477 5478 5479 5480 5481 5483 5485 5487 5490 5493 5496 5500 5503 5507 5509 5512 5515 5518 5521 5525 5528 5532 5537 5542 5547 5550 5555 5559 5565 5570
5474 5471 5470 5468 5467 5465 5464 5463 5463 5463 5463 5463 5463 5464 5464 5465 5466 5467 5468 5470 5472 5474 5477 5480 5483 5487 5491 5493 5495 5498 5501 5504 5510 5514 5514 5519 5522 5527 5531 5536 5540 5545 5549
5462 5459 5458 5456 5454 5453 5451 5450 5449 5449 5449 5449 5450 5450 5451 5451 5452 5453 5454 5455 5457 5459 5461 5464 5467 5471 5474 5478 5480 5482 5484 5486 5491 5495 5496 5501 5505 5509 5513 5516 5520 5525 5529
5450 5448 5446 5444 5443 5441 5439 5438 5437 5436 5436 5436 5436 5437 5437 5438 5438 5439 5440 5441 5443 5445 5447 5449 5453 5456 5457 5459 5462 5465 5467 5470 5475 5478 5479 5483 5487 5490 5494 5498 5502 5505 5510
5439 5437 5435 5433 5431 5429 5427 5426 5425 5424 5424 5424 5423 5423 5424 5424 5425 5425 5426 5427 5429 5430 5431 5433 5436 5438 5441 5443 5445 5447 5450 5453 5457 5462 5463 5466 5470 5473 5476 5480 5484 5488 5492
5428 5426 5424 5421 5420 5418 5416 5414 5413 5412 5412 5412 5411 5411 5411 5411 5411 5410 5411 5413 5414 5416 5417 5419 5421 5424 5426 5428 5430 5432 5434 5437 5440 5445 5447 5449 5452 5455 5459 5464 5467 5470 5474